TimeEST,TemperatureF,Dew PointF,Humidity,Sea Level PressureIn,VisibilityMPH,Wind Direction,Wind SpeedMPH,Gust SpeedMPH,PrecipitationIn,Events,Conditions,WindDirDegrees,DateUTC
12:15 AM,32.0,24.8,75,29.70,10.0,West,21.9,32.2,N/A,,Overcast,270,2012-12-21 05:15:00
12:35 AM,32.0,24.8,75,29.70,10.0,West,26.5,39.1,N/A,,Overcast,270,2012-12-21 05:35:00
12:55 AM,32.0,26.6,80,29.70,10.0,West,17.3,32.2,N/A,,Overcast,270,2012-12-21 05:55:00
1:15 AM,32.0,26.6,80,29.70,10.0,West,15.0,25.3,N/A,,Overcast,260,2012-12-21 06:15:00
1:35 AM,32.0,24.8,75,29.71,10.0,West,28.8,43.7,N/A,,Overcast,260,2012-12-21 06:35:00
1:55 AM,32.0,24.8,75,29.71,7.0,West,19.6,29.9,N/A,,Overcast,270,2012-12-21 06:55:00
2:15 AM,32.0,24.8,75,29.72,7.0,West,29.9,33.4,N/A,,Overcast,270,2012-12-21 07:15:00
2:35 AM,32.0,24.8,75,29.73,10.0,West,21.9,36.8,N/A,,Overcast,270,2012-12-21 07:35:00
2:55 AM,30.2,24.8,80,29.73,10.0,West,13.8,31.1,N/A,,Overcast,260,2012-12-21 07:55:00
3:15 AM,30.2,24.8,80,29.73,10.0,West,21.9,31.1,N/A,,Overcast,270,2012-12-21 08:15:00
3:35 AM,30.2,24.8,80,29.74,10.0,West,23.0,34.5,N/A,,Overcast,260,2012-12-21 08:35:00
3:55 AM,30.2,24.8,80,29.74,5.0,West,25.3,35.7,N/A,,Overcast,270,2012-12-21 08:55:00
4:15 AM,30.2,24.8,80,29.74,7.0,West,21.9,35.7,N/A,,Overcast,270,2012-12-21 09:15:00
4:35 AM,30.2,24.8,80,29.74,7.0,West,21.9,36.8,N/A,,Overcast,270,2012-12-21 09:35:00
4:55 AM,30.2,24.8,80,29.74,10.0,West,18.4,28.8,N/A,,Overcast,270,2012-12-21 09:55:00
5:15 AM,30.2,23.0,75,29.74,10.0,West,21.9,33.4,N/A,,Overcast,260,2012-12-21 10:15:00
5:35 AM,30.2,23.0,75,29.75,10.0,West,26.5,34.5,N/A,,Overcast,270,2012-12-21 10:35:00
5:55 AM,30.2,23.0,75,29.75,10.0,West,23.0,36.8,N/A,,Overcast,260,2012-12-21 10:55:00
6:15 AM,30.2,23.0,75,29.76,10.0,West,20.7,34.5,N/A,,Overcast,260,2012-12-21 11:15:00
6:35 AM,28.4,23.0,80,29.77,10.0,West,17.3,24.2,N/A,,Overcast,270,2012-12-21 11:35:00
6:55 AM,28.4,23.0,80,29.78,10.0,West,28.8,36.8,N/A,,Overcast,270,2012-12-21 11:55:00
7:15 AM,28.4,23.0,80,29.78,10.0,West,25.3,38.0,N/A,,Overcast,270,2012-12-21 12:15:00
7:35 AM,28.4,23.0,80,29.79,10.0,West,21.9,33.4,N/A,,Overcast,280,2012-12-21 12:35:00
7:55 AM,28.4,23.0,80,29.80,5.0,West,26.5,33.4,N/A,,Overcast,270,2012-12-21 12:55:00
8:15 AM,28.4,23.0,80,29.80,7.0,West,21.9,32.2,N/A,,Overcast,270,2012-12-21 13:15:00
8:35 AM,28.4,23.0,80,29.80,10.0,West,18.4,32.2,N/A,,Overcast,270,2012-12-21 13:35:00
8:55 AM,28.4,23.0,80,29.81,10.0,West,20.7,27.6,N/A,,Overcast,270,2012-12-21 13:55:00
9:15 AM,28.4,23.0,80,29.83,7.0,West,26.5,31.1,N/A,,Overcast,270,2012-12-21 14:15:00
9:35 AM,28.4,23.0,80,29.83,10.0,West,20.7,28.8,N/A,,Overcast,260,2012-12-21 14:35:00
9:55 AM,28.4,23.0,80,29.84,7.0,West,21.9,28.8,N/A,,Overcast,270,2012-12-21 14:55:00
10:15 AM,28.4,23.0,80,29.85,5.0,West,18.4,27.6,N/A,,Overcast,270,2012-12-21 15:15:00
10:35 AM,28.4,23.0,80,29.86,7.0,West,21.9,28.8,N/A,,Overcast,280,2012-12-21 15:35:00
10:55 AM,28.4,23.0,80,29.86,10.0,West,18.4,33.4,N/A,,Overcast,280,2012-12-21 15:55:00
11:15 AM,28.4,23.0,80,29.87,10.0,West,23.0,32.2,N/A,,Overcast,270,2012-12-21 16:15:00
11:35 AM,28.4,23.0,80,29.88,10.0,West,21.9,32.2,N/A,,Overcast,270,2012-12-21 16:35:00
11:55 AM,28.4,21.2,74,29.88,10.0,West,23.0,33.4,N/A,,Overcast,270,2012-12-21 16:55:00
12:15 PM,28.4,21.2,74,29.88,10.0,West,26.5,34.5,N/A,,Overcast,260,2012-12-21 17:15:00
12:35 PM,30.2,21.2,69,29.88,7.0,West,20.7,27.6,N/A,,Overcast,280,2012-12-21 17:35:00
12:55 PM,30.2,21.2,69,29.88,10.0,West,17.3,33.4,N/A,,Overcast,270,2012-12-21 17:55:00
1:15 PM,30.2,23.0,75,29.88,10.0,West,20.7,27.6,N/A,,Overcast,280,2012-12-21 18:15:00
1:35 PM,30.2,21.2,69,29.88,10.0,West,16.1,33.4,N/A,,Overcast,280,2012-12-21 18:35:00
1:55 PM,30.2,21.2,69,29.89,10.0,WNW,25.3,31.1,N/A,,Overcast,290,2012-12-21 18:55:00
2:15 PM,32.0,23.0,69,29.89,10.0,West,18.4,31.1,N/A,,Overcast,280,2012-12-21 19:15:00
2:35 PM,32.0,21.2,64,29.90,10.0,WNW,28.8,35.7,N/A,,Overcast,290,2012-12-21 19:35:00
2:55 PM,32.0,23.0,69,29.91,10.0,WNW,20.7,28.8,N/A,,Overcast,290,2012-12-21 19:55:00
3:15 PM,32.0,21.2,64,29.91,10.0,WNW,20.7,36.8,N/A,,Overcast,290,2012-12-21 20:15:00
3:35 PM,32.0,21.2,64,29.93,10.0,WNW,24.2,33.4,N/A,,Overcast,290,2012-12-21 20:35:00
3:55 PM,32.0,23.0,69,29.94,10.0,WNW,15.0,27.6,N/A,,Overcast,300,2012-12-21 20:55:00
4:15 PM,33.8,23.0,65,29.95,10.0,NW,18.4,27.6,N/A,,Overcast,310,2012-12-21 21:15:00
4:35 PM,32.0,21.2,64,29.97,10.0,NW,18.4,31.1,N/A,,Overcast,310,2012-12-21 21:35:00
4:55 PM,32.0,21.2,64,29.98,10.0,NW,13.8,23.0,N/A,,Overcast,310,2012-12-21 21:55:00
5:15 PM,32.0,21.2,64,29.99,10.0,NW,10.4,-,N/A,,Overcast,310,2012-12-21 22:15:00
5:35 PM,30.2,21.2,69,30.00,10.0,NNW,8.1,-,N/A,,Mostly Cloudy,330,2012-12-21 22:35:00
5:55 PM,28.4,21.2,74,30.01,10.0,NNW,5.8,-,N/A,,Mostly Cloudy,330,2012-12-21 22:55:00
6:15 PM,28.4,21.2,74,30.02,10.0,NNW,4.6,-,N/A,,Mostly Cloudy,330,2012-12-21 23:15:00
6:35 PM,28.4,21.2,74,30.03,10.0,NNW,5.8,-,N/A,,Mostly Cloudy,340,2012-12-21 23:35:00
6:55 PM,28.4,21.2,74,30.04,10.0,NNW,5.8,-,N/A,,Overcast,330,2012-12-21 23:55:00
7:15 PM,28.4,21.2,74,30.05,10.0,NW,5.8,-,N/A,,Overcast,320,2012-12-22 00:15:00
7:35 PM,28.4,21.2,74,30.06,10.0,WNW,4.6,-,N/A,,Overcast,300,2012-12-22 00:35:00
7:55 PM,28.4,23.0,80,30.07,10.0,WNW,4.6,-,N/A,,Overcast,290,2012-12-22 00:55:00
8:15 PM,28.4,23.0,80,30.08,10.0,WNW,4.6,-,N/A,,Overcast,290,2012-12-22 01:15:00
8:35 PM,30.2,23.0,75,30.08,10.0,WNW,9.2,17.3,N/A,,Overcast,290,2012-12-22 01:35:00
8:55 PM,30.2,21.2,69,30.09,10.0,WNW,16.1,25.3,N/A,,Overcast,300,2012-12-22 01:55:00
9:15 PM,30.2,21.2,69,30.10,10.0,WNW,13.8,-,N/A,,Overcast,290,2012-12-22 02:15:00
9:35 PM,30.2,19.4,64,30.10,10.0,WNW,17.3,21.9,N/A,,Overcast,300,2012-12-22 02:35:00
9:55 PM,30.2,19.4,64,30.11,10.0,WNW,13.8,17.3,N/A,,Overcast,290,2012-12-22 02:55:00
10:15 PM,30.2,19.4,64,30.12,10.0,WNW,13.8,23.0,N/A,,Overcast,290,2012-12-22 03:15:00
10:35 PM,30.2,19.4,64,30.12,10.0,WNW,16.1,21.9,N/A,,Overcast,300,2012-12-22 03:35:00
10:55 PM,28.4,19.4,69,30.13,10.0,WNW,15.0,21.9,N/A,,Overcast,290,2012-12-22 03:55:00
11:15 PM,28.4,19.4,69,30.13,10.0,WNW,16.1,24.2,N/A,,Overcast,290,2012-12-22 04:15:00
11:35 PM,28.4,19.4,69,30.13,10.0,West,16.1,21.9,N/A,,Overcast,280,2012-12-22 04:35:00
11:55 PM,28.4,19.4,69,30.14,10.0,WNW,18.4,21.9,N/A,,Overcast,290,2012-12-22 04:55:00